This demonstration page uses our WeatherBlox Daily Observations layout. Learn more.

41.55636, -103.73856

Hourly Observations for March 7, 2015

Temp ( °F °C ) Dew Point ( °F °C ) Humidity (%) Winds ( mph kmh ) Pressure ( in mb ) Visibility ( mi km ) Precip ( " mm )
12:53 am 00:53 Clear 29 -1.7 22 -5.6 75 75 NW 7 11 30.28 1026 10 16.0934 0 0
1:53 am 01:53 Clear 27 -2.8 21 -6.1 78 78 NNW 9 15 30.29 1026 10 16.0934 0 0
2:53 am 02:53 Clear 28 -2.2 22 -5.6 78 78 NNW 9 15 30.28 1025 10 16.0934 0 0
3:53 am 03:53 Clear 31 -0.6 23 -5 72 72 NNW 9 15 30.28 1026 10 16.0934 0 0
4:53 am 04:53 Clear 28 -2.2 21 -6.1 75 75 NW 5 7 30.3 1026 10 16.0934 0 0
5:53 am 05:53 Clear 28 -2.2 21 -6.1 75 75 NW 7 11 30.31 1027 10 16.0934 0 0
6:53 am 06:53 Sunny 28 -2.2 22 -5.6 78 78 W 6 9 30.34 1028 10 16.0934 0 0
7:53 am 07:53 Sunny 36 2.2 26 -3.3 67 67 NW 8 13 30.33 1027 10 16.0934 0 0
8:53 am 08:53 Sunny 45 7.2 25 -3.9 46 46 WNW 7 11 30.32 1027 10 16.0934 0 0
9:53 am 09:53 Sunny 51 10.6 24 -4.4 35 35 NW 8 13 30.28 1026 10 16.0934 0 0
10:53 am 10:53 Sunny 55 12.8 24 -4.4 30 30 WNW 9 15 30.25 1025 10 16.0934 0 0
11:53 am 11:53 Sunny 57 14 23 -5 27 27 WNW 8 13 30.09 1019 10 16.0934 0 0
12:53 pm 12:53 Sunny 61 16.1 21 -6.1 21 21 W 9 15 30.15 1021 10 16.0934 0 0
1:53 pm 13:53 Sunny 62 16.7 20 -6.7 20 20 WSW 12 19 30.11 1020 10 16.0934 0 0
2:53 pm 14:53 Sunny 63 17.2 20 -6.7 19 19 W 9 15 30.07 1018 10 16.0934 0 0
3:53 pm 15:53 Sunny 63 17.2 17 -8.3 17 17 WSW 12 19 30.05 1018 10 16.0934 0 0
4:53 pm 16:53 Sunny 61 16.1 17 -8.3 18 18 SW 13 20 30.04 1017 10 16.0934 0 0
5:53 pm 17:53 Clear 53 11.7 23 -5 31 31 W 8 13 30.07 1018 10 16.0934 0 0
6:53 pm 18:53 Clear 49 9.4 22 -5.6 35 35 W 9 15 30.09 1019 10 16.0934 0 0
7:53 pm 19:53 Clear 39 3.9 23 -5 53 53 NW 9 15 30.1 1019 10 16.0934 0 0
8:53 pm 20:53 Clear 37 2.8 23 -5 57 57 WNW 3 6 30.1 1019 10 16.0934 0 0
9:53 pm 21:53 Clear 36 2.2 24 -4.4 62 62 NW 7 11 30.08 1019 10 16.0934 0 0
10:53 pm 22:53 Clear 33 0.6 23 -5 66 66 NW 8 13 30.09 1019 10 16.0934 0 0
11:53 pm 23:53 Clear 33 0.6 25 -3.9 72 72 NW 9 15 30.09 1019 10 16.0934 0 0

Powered by AerisWeather